User: anonymous   Login
Location: Unspecified
(0.0000°N, 0.0000°E)
Time: 06:49:37
(UTC+00:00)
Language:

RASAT - Orbit

View from above orbital plane
View from above orbital plane
View from above satellite
View from above satellite

Ground track
Ground track

The orbit data is extracted from the following two-line orbital elements,

1 37791U 11044D   17087.78728265 -.00000064 +00000-0 -29343-5 0  9993
2 37791 098.1345 180.6186 0022082 018.3713 341.8253 14.64590672300009
Epoch (UTC): 28 March 2017 18:53:41
Eccentricity: 0.0022082
inclination: 98.1345°
perigee height: 663 km
apogee height: 694 km
right ascension of ascending node: 180.6186°
argument of perigee: 18.3713°
revolutions per day: 14.64590672
mean anomaly at epoch: 341.8253°
orbit number at epoch: 30000

The dashed part of the orbit path shows where the satellite is in the earth's shadow,  

DLR